| time (UTC) | temp F | wind direction | speed knots | gust knots | rain 1hr in | rain 24hr in | rain mn in | humidity % | barometer mb |
| 20260503060103 | 46 | 186 | 0.0 | 0.0 | 0.00 | 0.41 | 0.00 | 91 | 1016.1 |
| 20260503054601 | 47 | 186 | 0.0 | 0.0 | 0.00 | 0.41 | 0.00 | 91 | 1016.1 |
| 20260503053001 | 47 | 186 | 0.0 | 0.9 | 0.00 | 0.41 | 0.00 | 92 | 1015.9 |
| 20260503051505 | 48 | 185 | 0.0 | 1.7 | 0.00 | 0.41 | 0.00 | 92 | 1015.9 |
| 20260503050005 | 48 | 184 | 0.0 | 1.7 | 0.00 | 0.41 | 0.00 | 92 | 1016.1 |
| 20260503044522 | 48 | 182 | 0.0 | 0.9 | 0.00 | 0.41 | 0.00 | 92 | 1016.1 |
| 20260503043059 | 48 | 182 | 0.0 | 0.0 | 0.00 | 0.41 | 0.00 | 91 | 1016.0 |
| 20260503041545 | 48 | 182 | 0.0 | 1.7 | 0.00 | 0.41 | 0.00 | 92 | 1015.9 |
| 20260503040047 | 48 | 165 | 0.0 | 0.9 | 0.00 | 0.41 | 0.41 | 92 | 1015.8 |
| 20260503034546 | 48 | 165 | 0.0 | 0.0 | 0.00 | 0.41 | 0.41 | 91 | 1015.7 |
| 20260503033050 | 48 | 165 | 0.0 | 0.9 | 0.00 | 0.41 | 0.41 | 91 | 1015.6 |
| 20260503031536 | 49 | 165 | 0.0 | 0.0 | 0.00 | 0.41 | 0.41 | 91 | 1015.5 |
| 20260503030006 | 49 | 165 | 0.0 | 0.0 | 0.00 | 0.41 | 0.41 | 91 | 1015.4 |
| 20260503024519 | 49 | 165 | 0.0 | 0.0 | 0.00 | 0.41 | 0.41 | 91 | 1015.3 |
| 20260503023029 | 49 | 165 | 0.0 | 0.0 | 0.00 | 0.41 | 0.41 | 91 | 1015.3 |
| 20260503021521 | 49 | 165 | 0.0 | 0.0 | 0.00 | 0.41 | 0.41 | 91 | 1015.5 |
| 20260503020100 | 49 | 165 | 0.0 | 0.0 | 0.00 | 0.41 | 0.41 | 90 | 1015.3 |
| 20260503014628 | 50 | 165 | 0.0 | 0.0 | 0.00 | 0.41 | 0.41 | 90 | 1015.2 |
| 20260503013046 | 50 | 165 | 0.0 | 0.0 | 0.00 | 0.41 | 0.41 | 90 | 1015.2 |
| 20260503011630 | 51 | 165 | 0.0 | 0.0 | 0.00 | 0.41 | 0.41 | 90 | 1014.8 |
| 20260503010031 | 52 | 165 | 0.0 | 0.0 | 0.00 | 0.41 | 0.41 | 90 | 1014.4 |
| 20260503004523 | 52 | 165 | 0.0 | 0.0 | 0.00 | 0.41 | 0.41 | 91 | 1014.2 |
| 20260503003035 | 52 | 165 | 0.0 | 0.9 | 0.00 | 0.41 | 0.41 | 90 | 1014.1 |
| 20260503001538 | 52 | 165 | 0.0 | 0.0 | 0.00 | 0.41 | 0.41 | 90 | 1013.7 |
| 20260503000041 | 53 | 165 | 0.0 | 0.9 | 0.00 | 0.41 | 0.41 | 90 | 1013.5 |
| 20260502234537 | 53 | 165 | 0.0 | 0.9 | 0.00 | 0.41 | 0.41 | 90 | 1013.3 |
| 20260502233031 | 53 | 127 | 0.0 | 0.0 | 0.01 | 0.41 | 0.41 | 90 | 1013.2 |
| 20260502231539 | 53 | 127 | 0.0 | 0.0 | 0.01 | 0.41 | 0.41 | 90 | 1013.2 |
| 20260502230043 | 53 | 127 | 0.0 | 0.0 | 0.01 | 0.41 | 0.41 | 90 | 1013.2 |
| 20260502224549 | 53 | 127 | 0.0 | 0.0 | 0.01 | 0.41 | 0.41 | 90 | 1013.2 |
| 20260502223100 | 53 | 94 | 0.0 | 0.9 | 0.00 | 0.40 | 0.40 | 90 | 1013.1 |
| 20260502221551 | 53 | 94 | 0.0 | 1.7 | 0.00 | 0.40 | 0.40 | 90 | 1013.0 |
| 20260502220037 | 53 | 94 | 0.0 | 2.6 | 0.00 | 0.40 | 0.40 | 90 | 1013.0 |
| 20260502214548 | 53 | 350 | 0.0 | 1.7 | 0.00 | 0.40 | 0.40 | 90 | 1012.9 |
| 20260502213042 | 52 | 50 | 0.9 | 2.6 | 0.00 | 0.40 | 0.40 | 89 | 1013.0 |
| 20260502211528 | 53 | 34 | 0.9 | 4.3 | 0.00 | 0.40 | 0.40 | 90 | 1013.0 |
| 20260502210041 | 52 | 78 | 0.0 | 4.3 | 0.00 | 0.40 | 0.40 | 90 | 1013.0 |
| 20260502204517 | 52 | 86 | 1.7 | 5.2 | 0.00 | 0.40 | 0.40 | 89 | 1013.0 |
| 20260502203023 | 53 | 84 | 0.9 | 5.2 | 0.01 | 0.40 | 0.40 | 90 | 1013.1 |
| 20260502201508 | 52 | 109 | 0.9 | 4.3 | 0.01 | 0.40 | 0.40 | 90 | 1013.0 |
| 20260502200007 | 52 | 36 | 2.6 | 7.0 | 0.01 | 0.40 | 0.40 | 90 | 1013.1 |
| 20260502194508 | 52 | 55 | 0.9 | 5.2 | 0.01 | 0.40 | 0.40 | 90 | 1013.4 |
| 20260502193050 | 52 | 60 | 1.7 | 4.3 | 0.00 | 0.39 | 0.39 | 90 | 1013.4 |
| 20260502191537 | 52 | 44 | 0.9 | 3.5 | 0.01 | 0.39 | 0.39 | 90 | 1013.6 |
| 20260502190041 | 51 | 65 | 0.9 | 8.7 | 0.01 | 0.42 | 0.39 | 90 | 1013.6 |
| 20260502184604 | 51 | 60 | 1.7 | 5.2 | 0.02 | 0.42 | 0.39 | 90 | 1013.6 |
| 20260502183003 | 51 | 80 | 2.6 | 7.8 | 0.03 | 0.42 | 0.39 | 90 | 1013.5 |
| 20260502181515 | 51 | 76 | 2.6 | 6.1 | 0.02 | 0.41 | 0.38 | 90 | 1014.1 |
| 20260502180107 | 51 | 62 | 2.6 | 8.7 | 0.03 | 0.41 | 0.38 | 90 | 1013.8 |
| 20260502163058 | 51 | 76 | 2.6 | 10.4 | 0.05 | 0.36 | 0.33 | 90 | 1015.0 |
| 20260502161540 | 51 | 76 | 0.9 | 5.2 | 0.04 | 0.34 | 0.31 | 90 | 1015.2 |
| 20260502151528 | 52 | 64 | 2.6 | 6.1 | 0.06 | 0.30 | 0.27 | 90 | 1014.9 |
| 20260502123104 | 52 | 142 | 0.9 | 3.5 | 0.07 | 0.17 | 0.14 | 90 | 1013.4 |
| 20260502121535 | 52 | 278 | 1.7 | 4.3 | 0.07 | 0.15 | 0.12 | 90 | 1013.3 |
| 20260502114552 | 52 | 311 | 2.6 | 7.0 | 0.08 | 0.12 | 0.09 | 90 | 1013.2 |